IRIDIUM 33 DEB, 34538

Orbit data source: Space-Track

IRIDIUM 33 DEB, 34538 is space debris in LEO originally from a launch on Sun, 14 Sep 1997 UTC launched from the Tyuratam Missile And Space Complex (TTMTR). The debris from Iridium 33, an American commercial communications satellite, has been tracked extensively since its accidental collision with the defunct Russian satellite Cosmos 2251 in 2009. This event, occurring at high speed in low Earth orbit (LEO), generated thousands of pieces of space debris, significantly increasing the risk of further collisions. The Iridium 33 debris cloud has impacted space traffic management and orbital debris mitigation strategies, making it a subject of ongoing study in space situational awareness.

Loading next visibility...
Identifier
34538, 1997-051JF
Orbit
LEO
Country
Flag of USUS
Related business
Manufacturer
Unknown
Mission
Spacecraft
Bus & Motor
Unknown
Mass
Unknown
Launch date (UTC)
1997-09-14 (29 years ago)
Launch vehicle
Unknown
Launch site
Tyuratam Missile And Space Complex (TTMTR)
Object type
Payload
Rocket body
Debris
Shape & HBR
Unknown shape, 0.050 m
Radar Cross Section
Medium (>0.1 m² and <1 m²)

Expand to show TLE details & history
Last TLE update: 3 days ago

TLE from 3 days ago
0 IRIDIUM 33 DEB
1 34538U 97051JF  26264.39095958  .00001210  00000-0  34612-3 0  9996
2 34538  86.2728 241.5720 0037100 107.1153  45.0237 14.43909008918331
Epoch: 2026-09-21T09:22Z
TLE epoch observation values (Epoch: 2026-09-21T09:22:58.907Z)
Latitude
27.53595°
Longitude
-81.38083°
Altitude
730.487 km
Speed
7.502 km/s
True Right ascension
03h 58m 32s
True Declination
27° 23' 41"
Sunlit
Object was in daylight at epoch
Visualization orbit readout
Latitude
Unknown
Longitude
Unknown
Altitude
Unknown
Speed
Unknown
Apparent Right ascension
Unknown
Apparent Declination
Unknown
Sunlit
N/A
Visualization observer readout
Local Sidereal Time
13:59:20
Azimuth
Unknown
Elevation
Unknown
Doppler factor
Unknown
Orbital elements
Apogee altitude
768.983 km
Perigee altitude
716.148 km
Semi-major axis
7,120.703 km
Eccentricity
0.00371
Inclination
86.2728°
RAAN
241.572°
Arg. of periapsis
107.1153°
True anomaly
45.32543°
Mean anomaly
45.0237°
Eccentric anomaly
45.17446°
Mean motion
3.61209 °/min
Orbital period
99.67 mins
BSTAR
0.00034612

Documentation

Showing up to 5 results
|